Regional Weather Roundup
Issued by NWS

Home | Current Version | Previous Version | Graphics & Text | Print | Product List | Glossary On
Versions: 1 2 3 4 5 6 7 8 9 10 11 12 13 14 15 16 17 18 19 20 21 22 23 24 25 26 27 28 29 30 31 32 33 34 35 36 37 38 39 40 41 42 43 44 45 46 47 48 49 50
317
ASUS43 KDMX 120408
RWRIA

WEATHER ROUNDUP FOR IOWA
NATIONAL WEATHER SERVICE DES MOINES IA
1000 PM CST THU FEB 11 2016

NOTE: "FAIR" INDICATES FEW OR NO CLOUDS BELOW 12,000 FEET WITH NO
SIGNIFICANT WEATHER AND/OR OBSTRUCTIONS TO VISIBILITY.

* - THESE STATIONS ARE NOT NWS STATIONS...THUS NOT UNDER NWS
QUALITY CONTROL.  THEY ALSO DO NOT REPORT WEATHER SUCH
AS PRECIPITATION OR FOG.

IAZ001>003-012>014-020>022-031>034-043>046-120500-
   NORTHWEST IOWA

CITY           SKY/WX    TMP DP  RH WIND       PRES   REMARKS
CARROLL *      CLOUDY    10  10 100 CALM      30.22S
CHEROKEE *     CLOUDY    12  10  92 CALM      30.22F
DENISON *      CLOUDY    14  14 100 CALM      30.20R
LE MARS *      CLOUDY    18  18 100 CALM      30.23F
ORANGE CITY *  CLOUDY    16  16 100 CALM      30.20F
SHELDON *        N/A      7   5  92 CALM      30.20S
SIOUX CITY     CLOUDY    20  16  84 CALM      30.24R
SPENCER        CLOUDY     8   5  87 SW5       30.21S WCI   0
STORM LAKE *   CLOUDY    10  10 100 S6        30.20S WCI   1
$$

IAZ055>058-069>071-079>083-090>094-120500-
   SOUTHWEST IOWA

CITY           SKY/WX    TMP DP  RH WIND       PRES   REMARKS
ATLANTIC *     CLOUDY    21  18  86 E5        30.21S WCI  15
AUDUBON *      CLOUDY    16  12  86 SE3       30.20S
CLARINDA *     CLOUDY    30  19  64 SE3       30.22R
COUNCIL BLFS * CLOUDY    23  19  86 NE5       30.20R WCI  17
CRESTON *      FLURRIES  19  18  93 E8        30.21F WCI   9
HARLAN  *      CLOUDY    19  18  93 E3        30.24S
LAMONI         LGT SNOW  22  16  78 E7        30.20F WCI  13
RED OAK *      CLOUDY    27  21  80 E7        30.21R WCI  19
SHENANDOAH *   CLOUDY    30  25  80 N3        30.21R
$$

IAZ047>049-059>061-072>074-084-120500-
   CENTRAL IOWA

CITY           SKY/WX    TMP DP  RH WIND       PRES   REMARKS
AMES           CLOUDY    15  13  91 E3        30.24S
ANKENY *       CLOUDY    18  16  93 E3        30.25F
BOONE *        CLOUDY    12  10  92 SE6       30.22S WCI   3
CHARITON *     LGT SNOW  19  18  93 E6        30.24S WCI  11
DES MOINES     LGT SNOW  19  14  81 E3        30.25S
GRINNELL*      LGT SNOW  18  16  93 CALM      30.25S
KNOXVILLE *    LGT SNOW  19  16  86 SE3       30.24S
MARSHALLTOWN   CLOUDY    15  11  83 SW5       30.23F WCI   8
NEWTON *       LGT SNOW  18  18 100 CALM      30.25S
PELLA *        LGT SNOW  19  18  93 CALM      30.27F
$$

IAZ004>006-015-016-023>025-035-036-120500-
   NORTH CENTRAL IOWA

CITY           SKY/WX    TMP DP  RH WIND       PRES   REMARKS
ALGONA *       CLOUDY    10   9  92 SW6       30.21S WCI   1
CLARION *      CLOUDY     9   5  85 S6        30.22S WCI  -1
ESTHERVILLE    CLOUDY    10   8  92 SW8       30.21R WCI  -2
FORT DODGE *   CLOUDY    12   9  85 S3        30.23S
MASON CITY     CLOUDY     8   4  83 CALM      30.24R
FOREST CITY *  CLOUDY     9   5  85 CALM      30.22R
WEBSTER CITY * MOCLDY     9   7  92 SE6       30.21S WCI  -1
IOWA FALLS *     N/A     12  10  92 S5        30.24R WCI   4
$$

IAZ007>011-017>019-026>030-037>042-050>054-066-120500-
   NORTHEAST IOWA

CITY           SKY/WX    TMP DP  RH WIND       PRES   REMARKS
CEDAR RAPIDS   PTCLDY    18  11  74 SW3       30.24F
CHARLES CITY * CLOUDY    10   3  72 SW3       30.23F
CLINTON *      PTCLDY    16   9  74 CALM      30.27F
DECORAH *      CLOUDY    10   1  67 CALM      30.22S
DUBUQUE        MOCLDY    13   3  64 CALM      30.24S
MONTICELLO *   PTCLDY    14   9  79 CALM      30.25F HAZE
OELWEIN *      CLEAR     12   3  67 CALM      30.24S
WATERLOO       CLOUDY     9   5  84 NE3       30.25F
$$

IAZ064-065-067-068-078-120500-
   EAST CENTRAL IOWA

CITY           SKY/WX    TMP DP  RH WIND       PRES   REMARKS
DAVENPORT      CLOUDY    20   6  55 CALM      30.26F
IOWA CITY      CLOUDY    21  12  68 SW8       30.28S WCI  11
MT. PLEASANT * LGT SNOW  23  19  86 CALM      30.28S
MUSCATINE *    CLOUDY    23  12  63 SW9       30.28F WCI  13
QUAD CITIES    CLOUDY    22   8  55 S5        30.26F WCI  16
$$

IAZ062-063-075>077-085>089-095>099-120500-
   SOUTHEAST IOWA

CITY           SKY/WX    TMP DP  RH WIND       PRES   REMARKS
BURLINGTON     LGT SNOW  22  15  75 CALM      30.27S
FAIRFIELD *    LGT SNOW  21  18  86 CALM      30.26F
FORT MADISON * LGT SNOW  21  16  79 S3        30.28S
KEOKUK *       LGT SNOW  21  18  86 CALM      30.27S
OSKALOOSA *    LGT SNOW  19  18  93 S3        30.26S
CENTERVILLE *  FLURRIES  19  16  86 CALM      30.24F
OTTUMWA        LGT SNOW  20  18  92 SW3       30.25F FOG
WASHINGTON *   LGT SNOW  21  18  86 SW6       30.28S WCI  14
$$

ABBREVIATIONS USED IN REMARKS
   TC - TEMPERATURES IN CELSIUS
  WCI - WIND CHILL INDEX
   HX - HEAT INDEX
  VSB - VISIBILITY
$$





USA.gov is the U.S. government's official web portal to all federal, state and local government web resources and services.